#timestamp,LO_Frequency,Hit,StdDev 
1624053615.5,286047002.6,N
1624053635.3,286047001.0,N
1624053655.2,286047000.1,N
1624053675.0,286047000.8,N
1624053675.9,286047000.8,N
1624053695.7,286047000.0,N
1624053715.6,286047002.3,N
1624053735.4,286047002.4,N
1624053755.3,286046998.2,N
1624053775.1,286047000.7,N
1624053776.0,286047000.7,N
1624053795.8,286047000.8,N
1624053815.7,286047001.1,N
1624053835.5,286047000.6,N
1624053855.3,286046999.7,N
1624053875.2,286047002.5,N
1624053895.0,286047002.0,N
1624053895.9,286047002.0,N
1624053915.8,286047002.0,N
1624053935.6,286047002.7,N
1624053955.4,286047002.3,N
1624053975.3,286047001.2,N
1624053995.1,286047000.9,N
1624054015.8,286047000.9,N
1624054035.7,286047000.1,N
1624054055.5,286047002.6,N
1624054075.4,286047000.1,N
1624054095.2,286047001.8,N
1624054115.0,286047002.7,N
1624054115.9,286047002.7,N
1624054135.8,286046999.8,N
1624054155.6,286046999.7,N
1624054175.4,286047001.6,N
1624054195.3,286047000.4,N
1624054215.1,286047002.7,N
1624054235.9,286047001.9,N
1624054255.7,286047001.5,N
1624054275.5,286046999.9,N
1624054295.4,286047002.8,N
1624054315.2,286047002.6,N
1624054335.0,286047000.6,N
1624054335.9,286047000.6,N
1624054355.8,286046999.7,N
1624054375.6,286047002.3,N
1624054395.5,286047011.9,Y
1624054415.3,286047004.3,P
1624054435.1,286047000.3,N
1624054455.9,286047002.8,N
1624054475.7,286047003.9,N
1624054495.6,286047001.9,N
1624054515.4,286046999.8,N
1624054535.2,286047000.3,N
1624054555.1,286047004.7,N
1624054556.0,286047004.7,N
1624054575.8,286047008.5,Y
1624054595.6,286047004.0,P
1624054615.5,286047001.7,N
1624054635.3,286047003.2,P
1624054655.2,286047004.0,Y
1624054675.9,286046998.1,P
1624054695.7,286046999.5,N
1624054715.6,286046997.3,N
1624054735.4,286046997.4,N
1624054755.2,286046997.5,N
1624054775.1,286046996.8,N
1624054776.0,286046996.8,N
1624054795.8,286046997.5,N
1624054815.7,286046997.3,N
1624054835.5,286046997.7,N
1624054855.3,286046999.6,N
1624054875.2,286046999.3,N
1624054895.0,286046999.6,N
1624054895.9,286046999.6,N
1624054915.8,286046998.9,N
1624054935.6,286046998.4,N
1624054955.4,286046998.7,N
1624054975.3,286046998.8,N
1624054995.1,286046999.3,N
1624055015.8,286046998.7,N
1624055035.7,286046999.3,N
1624055055.5,286046999.2,N
1624055075.4,286046997.2,N
1624055095.2,286046997.1,N
1624055115.0,286046997.8,N
1624055115.9,286046997.8,N
1624055135.8,286046997.4,N
1624055155.6,286046994.9,Y
1624055175.5,286046998.3,P
1624055195.3,286046997.2,P
1624055215.1,286046997.3,P
1624055235.9,286046997.2,Y
1624055255.7,286047001.1,P
1624055275.6,286046999.5,N
1624055295.4,286046996.7,N
1624055315.2,286046997.3,N
1624055335.1,286046997.4,N
1624055336.0,286046997.4,N
1624055355.8,286046997.4,N
1624055375.6,286046996.8,N
1624055395.5,286046997.1,N
1624055415.3,286046997.1,N
1624055435.2,286046997.4,N
1624055455.9,286046997.8,N
1624055475.7,286046997.4,N
1624055495.6,286046996.8,N
1624055515.4,286046997.2,N
1624055535.2,286046997.8,N
1624055555.1,286046995.1,Y
1624055556.0,286046995.1,P
1624055575.8,286046996.5,N
1624055595.7,286046999.1,N
1624055615.5,286046999.4,N
1624055635.3,286046997.2,N
1624055655.2,286046999.0,N
1624055675.0,286046999.0,N
1624055675.9,286046999.0,N
1624055695.8,286046999.3,N
1624055715.6,286046996.5,N
1624055735.4,286046996.9,N
1624055755.3,286046997.6,N
1624055775.1,286046997.5,N
1624055776.0,286046997.5,N
1624055795.8,286046995.0,Y
1624055815.7,286046999.2,P
1624055835.5,286046997.7,P
1624055855.4,286046997.6,P
1624055875.2,286046995.3,Y
1624055895.0,286046997.4,P
1624055895.9,286046997.4,P
1624055915.8,286046999.4,N
1624055935.6,286047001.1,N
1624055955.4,286046998.7,N
1624055975.3,286046996.9,N
1624055995.1,286046997.6,N
1624056015.9,286046997.2,N
1624056035.7,286046998.8,N
1624056055.5,286046998.4,N
1624056075.4,286046999.3,N
1624056095.2,286046999.3,N
1624056115.0,286046999.4,N
1624056115.9,286046999.4,N
1624056135.8,286046998.9,N
1624056155.6,286046999.3,N
1624056175.5,286046999.1,N
1624056195.3,286046998.7,N
1624056215.1,286046998.9,N
1624056235.9,286046998.6,N
1624056255.7,286046999.4,N
1624056275.5,286046999.0,N
1624056295.4,286046999.5,N
1624056315.2,286046997.3,N
1624056335.1,286046995.4,Y
1624056336.0,286046995.4,P
1624056355.8,286046997.3,N
1624056375.7,286046995.8,P
1624056395.5,286046997.4,N
1624056415.3,286046996.7,N
1624056435.2,286046999.2,N
1624056455.0,286047001.1,N
1624056455.9,286047001.1,N
1624056475.7,286047001.2,N
1624056495.6,286047002.3,N
1624056515.4,286047002.8,N
1624056535.3,286046999.7,N
1624056555.1,286046999.9,N
1624056556.0,286046999.9,N
1624056575.8,286047000.3,N
1624056595.7,286047000.2,N
1624056615.5,286047002.4,N
1624056635.3,286047002.0,N
1624056655.2,286047004.0,N
1624056675.0,286047003.9,N
1624056675.9,286047003.9,N
1624056695.8,286047003.9,N
1624056715.6,286047003.9,N
1624056735.4,286047001.9,N
1624056755.3,286047002.8,N
1624056775.1,286047000.3,N
1624056795.8,286047002.4,N
1624056815.7,286047002.8,N
1624056835.5,286047001.8,N
1624056855.4,286047002.2,N
1624056875.2,286047002.8,N
1624056895.0,286047002.8,N
1624056895.9,286047002.8,N
1624056915.8,286047002.0,N
1624056935.6,286047002.8,N
1624056955.5,286047002.0,N
1624056975.3,286047001.6,N
1624056995.1,286047003.9,Y
1624057015.9,286047000.2,P
1624057035.7,286047000.1,N
1624057055.5,286047000.4,N
1624057075.4,286046998.3,N
1624057095.2,286046999.3,N
1624057115.1,286046998.6,N
1624057116.0,286046998.6,N
1624057135.8,286046998.4,N
1624057155.6,286047002.7,N
1624057175.5,286047001.0,N
1624057195.3,286046999.3,N
